DH5DY-6 Weather Reports


Display with metric or nautical units.
time (UTC)temp
F
wind
direction
speed
MPH
gust
MPH
rain 1hr
in
rain 24hr
in
rain mn
in
humidity
%
barometer
mb
20260507032848 45 360 2.0 4.0 0.00 0.20 0.00 92 1009.4
20260507031847 45 360 1.0 3.0 0.00 0.20 0.00 92 1009.3
20260507030848 45 360 1.0 4.0 0.00 0.20 0.00 92 1009.3
20260507025848 45 360 1.0 5.0 0.00 0.20 0.00 92 1009.3
20260507024847 45 360 2.0 6.0 0.00 0.20 0.00 93 1009.2
20260507023847 45 360 1.0 4.0 0.00 0.20 0.00 93 1009.2
20260507022847 45 360 2.0 5.0 0.00 0.20 0.00 93 1009.1
20260507021848 45 360 1.0 5.0 0.00 0.20 0.00 93 1009.1
20260507020847 45 360 1.0 6.0 0.00 0.20 0.00 93 1009.1
20260507015848 45 360 2.0 8.0 0.00 0.20 0.00 93 1009.0
20260507014848 45 360 2.0 6.0 0.00 0.20 0.00 93 1009.0
20260507013847 45 360 2.0 6.0 0.00 0.20 0.00 92 1009.0
20260507012848 45 360 3.0 6.0 0.00 0.20 0.00 92 1008.9
20260507011847 45 360 4.0 5.0 0.00 0.20 0.00 92 1008.8
20260507010847 45 360 2.0 6.0 0.00 0.20 0.00 92 1008.7
20260507005847 45 360 2.0 6.0 0.00 0.20 0.00 92 1008.6
20260507004847 45 360 2.0 5.0 0.00 0.20 0.00 91 1008.6
20260507003847 45 360 3.0 4.0 0.00 0.20 0.00 91 1008.5
20260507002847 46 360 0.0 4.0 0.00 0.20 0.00 91 1008.5
20260507001847 46 360 2.0 4.0 0.00 0.20 0.00 91 1008.4
20260507000847 46 360 1.0 5.0 0.00 0.20 0.00 91 1008.4
20260506235847 46 360 1.0 4.0 0.00 0.20 0.00 91 1008.5
20260506234847 46 360 1.0 5.0 0.00 0.20 0.00 91 1008.4
20260506233847 46 360 0.0 6.0 0.00 0.20 0.00 91 1008.4
20260506232847 46 360 3.0 5.0 0.00 0.20 0.00 91 1008.3
20260506231847 46 360 1.0 3.0 0.00 0.20 0.00 91 1008.2
20260506230848 46 360 4.0 6.0 0.00 0.20 0.00 91 1008.2
20260506225846 46 360 0.0 5.0 0.00 0.28 0.00 91 1008.1
20260506224847 46 360 3.0 6.0 0.00 0.28 0.00 91 1008.1
20260506223847 46 360 3.0 8.0 0.00 0.28 0.00 91 1007.9
20260506222846 46 360 1.0 9.0 0.00 0.28 0.00 92 1007.8
20260506221846 46 360 2.0 8.0 0.00 0.28 0.00 92 1007.7
20260506220846 46 360 3.0 9.0 0.00 0.28 0.00 91 1007.6
20260506215847 47 360 5.0 9.0 0.00 0.43 0.43 91 1007.6
20260506214846 47 360 3.0 9.0 0.00 0.43 0.43 91 1007.6
20260506213847 47 360 4.0 6.0 0.00 0.43 0.43 91 1007.6
20260506212846 47 360 1.0 8.0 0.00 0.43 0.43 91 1007.6
20260506211847 47 360 2.0 8.0 0.00 0.43 0.43 91 1007.5
20260506210846 47 360 4.0 9.0 0.00 0.43 0.43 91 1007.3
20260506205846 47 360 3.0 5.0 0.00 0.46 0.43 91 1007.2
20260506204846 47 360 1.0 3.0 0.00 0.46 0.43 91 1007.1
20260506203846 47 360 2.0 3.0 0.00 0.46 0.43 91 1007.1
20260506202846 47 360 0.0 4.0 0.00 0.46 0.43 91 1007.0
20260506201847 47 360 2.0 4.0 0.00 0.46 0.43 91 1006.9
20260506200846 47 360 2.0 5.0 0.00 0.46 0.43 91 1006.9
20260506195846 47 360 3.0 6.0 0.00 0.52 0.43 91 1006.8
20260506194845 47 360 2.0 8.0 0.00 0.52 0.43 91 1006.8
20260506193845 47 360 2.0 6.0 0.00 0.52 0.43 91 1006.7
20260506192846 47 360 3.0 8.0 0.00 0.52 0.43 91 1006.6
20260506191846 47 360 5.0 9.0 0.00 0.52 0.43 91 1006.6
20260506190846 47 360 2.0 8.0 0.00 0.52 0.43 91 1006.6
20260506185845 47 360 3.0 9.0 0.00 0.61 0.43 91 1006.5
20260506184846 47 360 2.0 6.0 0.00 0.61 0.43 91 1006.2
20260506183845 47 360 3.0 8.0 0.00 0.61 0.43 91 1006.2
20260506182846 47 360 1.0 6.0 0.00 0.61 0.43 90 1006.0
20260506181846 48 360 2.0 6.0 0.00 0.61 0.43 90 1006.1
20260506180845 48 360 3.0 8.0 0.00 0.61 0.43 90 1006.0
20260506175846 48 360 2.0 6.0 0.00 0.65 0.43 90 1005.9
20260506174845 48 360 3.0 8.0 0.00 0.65 0.43 90 1005.8
20260506173845 49 360 0.0 5.0 0.00 0.65 0.43 90 1005.6
20260506172845 49 360 2.0 6.0 0.00 0.65 0.43 90 1005.4
20260506171845 49 360 2.0 8.0 0.00 0.65 0.43 90 1005.2
20260506170845 49 360 4.0 5.0 0.00 0.65 0.43 91 1005.2
20260506165845 49 360 1.0 4.0 0.00 0.74 0.43 91 1005.1
20260506164845 49 360 3.0 6.0 0.00 0.74 0.43 90 1005.2
20260506163845 50 360 3.0 8.0 0.00 0.74 0.43 90 1005.1
20260506162845 50 360 2.0 6.0 0.00 0.74 0.43 90 1005.1
20260506162525 50 360 3.0 6.0 0.00 0.74 0.43 90 1005.0
20260506160845 50 360 1.0 5.0 0.00 0.74 0.43 90 1004.9
20260506155844 50 360 3.0 8.0 0.00 0.91 0.43 90 1004.8
20260506154845 51 360 3.0 8.0 0.00 0.91 0.43 90 1004.9
20260506153845 51 360 3.0 11.0 0.00 0.91 0.43 90 1004.7
20260506152844 51 360 5.0 10.0 0.00 0.91 0.43 90 1004.6
20260506151844 51 360 4.0 9.0 0.00 0.91 0.43 92 1004.6
20260506150844 51 360 4.0 9.0 0.00 0.91 0.43 91 1004.5
20260506145844 51 360 2.0 8.0 0.00 0.91 0.43 91 1004.5
20260506144844 52 360 4.0 11.0 0.00 0.91 0.43 91 1004.5
20260506143845 52 360 6.0 10.0 0.00 0.91 0.43 90 1004.3
20260506142844 53 360 3.0 6.0 0.00 0.91 0.43 91 1004.2
20260506141844 53 360 2.0 3.0 0.00 0.91 0.43 90 1004.2
20260506140844 53 360 1.0 6.0 0.01 0.91 0.43 91 1004.1
20260506135845 53 360 1.0 3.0 0.02 0.91 0.43 92 1004.1
20260506134844 53 360 1.0 9.0 0.03 0.91 0.43 91 1004.0
20260506133844 53 360 3.0 6.0 0.06 0.91 0.43 92 1004.0
20260506132844 52 360 3.0 9.0 0.06 0.91 0.43 92 1003.9
20260506131845 52 360 3.0 9.0 0.06 0.91 0.43 92 1003.8
20260506130844 53 360 4.0 10.0 0.06 0.91 0.42 93 1003.8
20260506125844 53 360 3.0 8.0 0.05 0.90 0.41 93 1003.9
20260506124844 53 360 2.0 6.0 0.04 0.88 0.39 93 1003.8
20260506122844 53 360 2.0 3.0 0.03 0.86 0.37 92 1003.7
20260506121844 54 360 1.0 3.0 0.03 0.85 0.36 93 1003.7
20260506120844 53 360 2.0 4.0 0.04 0.85 0.36 93 1003.5
20260506115844 53 360 1.0 3.0 0.05 0.85 0.36 94 1003.5
20260506114845 53 360 0.0 2.0 0.04 0.84 0.35 93 1003.5
20260506113844 53 360 1.0 3.0 0.03 0.83 0.35 94 1003.5
20260506112844 53 360 0.0 2.0 0.02 0.83 0.34 93 1003.3
20260506111843 53 360 1.0 2.0 0.02 0.82 0.33 93 1003.5
20260506110844 53 360 0.0 3.0 0.02 0.81 0.32 93 1003.5
20260506105843 53 360 2.0 5.0 0.02 0.80 0.31 92 1003.4
20260506104843 53 360 0.0 4.0 0.02 0.80 0.31 93 1003.4
20260506103843 54 360 3.0 4.0 0.02 0.80 0.31 93 1003.4
20260506102843 54 360 0.0 0.0 0.02 0.80 0.31 94 1003.3
20260506101843 53 360 0.0 0.0 0.02 0.80 0.31 94 1003.3
20260506100844 53 360 0.0 2.0 0.02 0.79 0.30 94 1003.2
20260506095843 53 360 0.0 4.0 0.02 0.79 0.30 95 1003.2
20260506094843 53 360 1.0 3.0 0.03 0.79 0.30 95 1003.2
20260506093843 52 360 2.0 5.0 0.04 0.79 0.30 95 1003.2
20260506092843 52 360 3.0 5.0 0.06 0.79 0.30 95 1003.1
20260506091915 52 360 0.0 6.0 0.06 0.78 0.29 95 1003.1
20260506091843 52 360 0.0 6.0 0.06 0.78 0.29 95 1003.1
20260506090843 52 360 2.0 4.0 0.05 0.77 0.28 95 1003.1
20260506085842 52 360 1.0 4.0 0.04 0.76 0.28 95 1003.1
20260506084843 52 360 1.0 5.0 0.03 0.76 0.27 95 1003.0
20260506083843 51 360 1.0 4.0 0.02 0.75 0.26 95 1002.9
20260506082843 51 360 3.0 6.0 0.01 0.73 0.24 95 1002.9
20260506081842 51 360 4.0 8.0 0.00 0.72 0.24 95 1002.8
20260506080843 51 360 3.0 5.0 0.00 0.72 0.24 95 1002.8
20260506072842 51 360 4.0 5.0 0.00 0.72 0.24 95 1002.8
20260506071843 51 360 2.0 5.0 0.00 0.72 0.24 95 1002.7
20260506070842 51 360 4.0 5.0 0.00 0.72 0.24 95 1002.8
20260506061842 51 360 2.0 5.0 0.00 0.72 0.24 95 1002.6
20260506060842 51 360 2.0 5.0 0.00 0.72 0.24 95 1002.6
20260506050841 51 360 2.0 6.0 0.02 0.72 0.24 95 1002.6
20260506044842 51 360 2.0 4.0 0.01 0.72 0.23 95 1002.6
20260506043841 51 360 2.0 4.0 0.00 0.71 0.22 95 1002.6
20260506042842 51 360 1.0 6.0 0.00 0.71 0.22 95 1002.6
20260506041842 51 360 2.0 5.0 0.00 0.71 0.22 95 1002.6
20260506040842 51 360 2.0 6.0 0.00 0.71 0.22 95 1002.7
20260506035841 51 360 2.0 5.0 0.00 0.71 0.22 95 1002.8
20260506034842 51 360 2.0 3.0 0.00 0.71 0.22 95 1002.7
20260506033841 51 360 1.0 3.0 0.00 0.71 0.22 95 1002.8